LHA1116 EDHL-EDDN

Flight info

Callsign LHA1116
Flight time 0h 58m
Altitude 25000
Route RAMA2K RAMAR Z990 HLZ M852 POVEL Z94 GALMA M736 TABAT Q244 PIVIR PIVI1V
Aircraft DH8D/M-SDE1E2FGIJ1RWYZ/S

Departure

Time 2026-04-23 17:59
Airport Lübeck Blankensee Airport (EDHL)

Arrival

Time 2026-04-23 18:57
Airport Nuremberg Airport (EDDN)
Time Latitude Longitude Altitude Speed Heading
2026-04-23 17:33 53.80486 10.70283 53 ft 0 kts 324°
2026-04-23 17:50 53.80465 10.70309 53 ft 2 kts 324°
2026-04-23 17:50 53.80452 10.70324 53 ft 2 kts 324°
2026-04-23 17:51 53.80439 10.70334 53 ft 2 kts
2026-04-23 17:51 53.80426 10.70325 53 ft 2 kts 45°
2026-04-23 17:51 53.80420 10.70308 53 ft 0 kts 73°
2026-04-23 17:54 53.80421 10.70313 53 ft 1 kts 73°
2026-04-23 17:54 53.80428 10.70353 53 ft 4 kts 72°
2026-04-23 17:54 53.80460 10.70513 53 ft 10 kts 71°
2026-04-23 17:55 53.80519 10.70811 53 ft 16 kts 72°
2026-04-23 17:55 53.80555 10.71001 53 ft 17 kts 72°
2026-04-23 17:55 53.80594 10.71209 53 ft 19 kts 72°
2026-04-23 17:56 53.80636 10.71431 53 ft 20 kts 72°
2026-04-23 17:56 53.80617 10.71801 54 ft 0 kts 112°
2026-04-23 17:57 53.80597 10.71888 54 ft 17 kts 110°
2026-04-23 17:58 53.80547 10.71983 54 ft 9 kts 214°
2026-04-23 17:58 53.80541 10.71967 53 ft 0 kts 246°
2026-04-23 17:59 53.80470 10.71610 53 ft 77 kts 253°
2026-04-23 17:59 53.80244 10.70367 124 ft 131 kts 257°
2026-04-23 17:59 53.80022 10.68790 542 ft 146 kts 256°
2026-04-23 17:59 53.79701 10.67181 1242 ft 147 kts 258°
2026-04-23 18:00 53.79396 10.65550 1894 ft 150 kts 260°
2026-04-23 18:00 53.79078 10.63851 2470 ft 161 kts 260°
2026-04-23 18:00 53.78723 10.61991 3019 ft 174 kts 259°
2026-04-23 18:00 53.78088 10.60173 3610 ft 194 kts 225°
2026-04-23 18:01 53.76787 10.59559 4147 ft 210 kts 176°
2026-04-23 18:01 53.75336 10.60195 4649 ft 216 kts 162°
2026-04-23 18:01 53.73929 10.60997 5191 ft 219 kts 162°
2026-04-23 18:01 53.72465 10.61837 5741 ft 222 kts 161°
2026-04-23 18:02 53.71024 10.62666 6281 ft 224 kts 161°
2026-04-23 18:02 53.69542 10.63515 6828 ft 227 kts 161°
2026-04-23 18:02 53.68048 10.64372 7413 ft 227 kts 161°
2026-04-23 18:02 53.66560 10.65223 7975 ft 229 kts 161°
2026-04-23 18:03 53.65054 10.66084 8531 ft 231 kts 161°
2026-04-23 18:03 53.63534 10.66952 9083 ft 232 kts 161°
2026-04-23 18:03 53.62013 10.67819 9646 ft 233 kts 161°
2026-04-23 18:03 53.60441 10.68715 9948 ft 251 kts 161°
2026-04-23 18:04 53.58685 10.69416 10157 ft 268 kts 173°
2026-04-23 18:04 53.56833 10.69806 10631 ft 273 kts 174°
2026-04-23 18:04 53.54956 10.70190 11167 ft 275 kts 174°
2026-04-23 18:04 53.53047 10.70586 11694 ft 277 kts 173°
2026-04-23 18:05 53.51141 10.70985 12271 ft 279 kts 173°
2026-04-23 18:05 53.49214 10.71391 12814 ft 281 kts 173°
2026-04-23 18:05 53.47276 10.71804 13326 ft 283 kts 173°
2026-04-23 18:05 53.45324 10.72222 13857 ft 284 kts 173°
2026-04-23 18:06 53.43393 10.72636 14352 ft 286 kts 173°
2026-04-23 18:06 53.41428 10.73058 14875 ft 286 kts 173°
2026-04-23 18:06 53.39441 10.73486 15359 ft 288 kts 173°
2026-04-23 18:06 53.37455 10.73912 15834 ft 288 kts 173°
2026-04-23 18:07 53.35482 10.74336 16269 ft 291 kts 173°
2026-04-23 18:07 53.33481 10.74765 16740 ft 291 kts 173°
2026-04-23 18:07 53.31480 10.75194 17174 ft 292 kts 173°
2026-04-23 18:07 53.29472 10.75624 17585 ft 294 kts 173°
2026-04-23 18:08 53.28121 10.75914 17825 ft 296 kts 173°
2026-04-23 18:08 53.25387 10.76500 18365 ft 297 kts 173°
2026-04-23 18:08 53.23342 10.76938 18705 ft 300 kts 173°
2026-04-23 18:08 53.21271 10.77381 19077 ft 301 kts 173°
2026-04-23 18:09 53.19184 10.77828 19421 ft 304 kts 173°
2026-04-23 18:09 53.17103 10.78272 19771 ft 305 kts 173°
2026-04-23 18:09 53.14988 10.78724 20107 ft 306 kts 173°
2026-04-23 18:09 53.12890 10.79171 20448 ft 306 kts 173°
2026-04-23 18:10 53.10775 10.79623 20719 ft 308 kts 173°
2026-04-23 18:10 53.08647 10.80076 21002 ft 310 kts 173°
2026-04-23 18:10 53.06514 10.80530 21268 ft 311 kts 173°
2026-04-23 18:10 53.04374 10.80985 21523 ft 312 kts 173°
2026-04-23 18:11 53.02251 10.81436 21761 ft 314 kts 173°
2026-04-23 18:11 53.00079 10.81897 22005 ft 314 kts 173°
2026-04-23 18:11 52.97894 10.82360 22225 ft 316 kts 173°
2026-04-23 18:11 52.95727 10.82819 22465 ft 316 kts 173°
2026-04-23 18:12 52.93560 10.83277 22686 ft 317 kts 173°
2026-04-23 18:12 52.91354 10.83743 22885 ft 319 kts 173°
2026-04-23 18:12 52.89166 10.84205 23114 ft 319 kts 173°
2026-04-23 18:12 52.86882 10.84685 23199 ft 324 kts 173°
2026-04-23 18:13 52.84661 10.85154 23215 ft 324 kts 172°
2026-04-23 18:13 52.82439 10.85624 23221 ft 323 kts 172°
2026-04-23 18:13 52.80199 10.86097 23220 ft 322 kts 172°
2026-04-23 18:13 52.77993 10.86562 23219 ft 322 kts 172°
2026-04-23 18:14 52.75789 10.87025 23216 ft 321 kts 172°
2026-04-23 18:14 52.73574 10.87489 23217 ft 321 kts 172°
2026-04-23 18:14 52.71373 10.87950 23220 ft 321 kts 172°
2026-04-23 18:14 52.69166 10.88411 23218 ft 321 kts 172°
2026-04-23 18:15 52.66929 10.88878 23220 ft 321 kts 172°
2026-04-23 18:15 52.64748 10.89333 23222 ft 321 kts 172°
2026-04-23 18:15 52.62539 10.89793 23223 ft 321 kts 172°
2026-04-23 18:15 52.60328 10.90253 23222 ft 321 kts 172°
2026-04-23 18:16 52.58088 10.90718 23222 ft 321 kts 172°
2026-04-23 18:16 52.55891 10.91174 23221 ft 321 kts 172°
2026-04-23 18:16 52.53670 10.91635 23225 ft 321 kts 172°
2026-04-23 18:17 52.49244 10.92551 23223 ft 321 kts 171°
2026-04-23 18:17 52.47041 10.93007 23222 ft 322 kts 171°
2026-04-23 18:17 52.44840 10.93461 23222 ft 322 kts 171°
2026-04-23 18:17 52.42608 10.93922 23225 ft 322 kts 171°
2026-04-23 18:18 52.40400 10.94377 23225 ft 322 kts 171°
2026-04-23 18:18 52.38176 10.94834 23222 ft 322 kts 171°
2026-04-23 18:18 52.35972 10.95288 23222 ft 322 kts 171°
2026-04-23 18:18 52.33738 10.95747 23222 ft 322 kts 172°
2026-04-23 18:19 52.31536 10.96198 23220 ft 323 kts 172°
2026-04-23 18:19 52.29306 10.96613 23218 ft 323 kts 173°
2026-04-23 18:19 52.27085 10.97006 23223 ft 323 kts 172°
2026-04-23 18:19 52.24829 10.97405 23224 ft 323 kts 172°
2026-04-23 18:20 52.22622 10.97798 23222 ft 323 kts 172°
2026-04-23 18:20 52.20397 10.98196 23221 ft 323 kts 172°
2026-04-23 18:20 52.18163 10.98595 23223 ft 323 kts 172°
2026-04-23 18:20 52.15920 10.98997 23220 ft 323 kts 172°
2026-04-23 18:21 52.13717 10.99393 23220 ft 323 kts 172°
2026-04-23 18:21 52.11465 10.99797 23223 ft 323 kts 172°
2026-04-23 18:21 52.09230 11.00199 23225 ft 323 kts 172°
2026-04-23 18:21 52.07010 11.00599 23227 ft 323 kts 172°
2026-04-23 18:22 52.04799 11.00996 23227 ft 323 kts 172°
2026-04-23 18:22 52.02543 11.01402 23228 ft 323 kts 172°
2026-04-23 18:22 52.00339 11.01797 23228 ft 323 kts 172°
2026-04-23 18:22 51.98080 11.02202 23229 ft 324 kts 172°
2026-04-23 18:23 51.95866 11.02598 23227 ft 324 kts 171°
2026-04-23 18:23 51.91403 11.03396 23225 ft 324 kts 171°
2026-04-23 18:24 51.86896 11.04199 23226 ft 323 kts 171°
2026-04-23 18:24 51.84690 11.04591 23223 ft 323 kts 171°
2026-04-23 18:24 51.82455 11.04988 23223 ft 323 kts 171°
2026-04-23 18:25 51.78015 11.05776 23222 ft 323 kts 171°
2026-04-23 18:25 51.75763 11.06176 23216 ft 323 kts 171°
2026-04-23 18:25 51.73535 11.06570 23219 ft 323 kts 171°
2026-04-23 18:25 51.71310 11.06963 23218 ft 323 kts 171°
2026-04-23 18:26 51.69085 11.07357 23219 ft 323 kts 171°
2026-04-23 18:26 51.66856 11.07750 23217 ft 323 kts 171°
2026-04-23 18:26 51.64636 11.08142 23221 ft 323 kts 171°
2026-04-23 18:26 51.62401 11.08535 23222 ft 323 kts 171°
2026-04-23 18:27 51.60183 11.08926 23221 ft 323 kts 171°
2026-04-23 18:27 51.57948 11.09319 23221 ft 323 kts 171°
2026-04-23 18:27 51.55722 11.09709 23219 ft 323 kts 171°
2026-04-23 18:27 51.53490 11.10101 23219 ft 323 kts 171°
2026-04-23 18:28 51.51281 11.10489 23219 ft 323 kts 171°
2026-04-23 18:28 51.49034 11.10882 23217 ft 323 kts 171°
2026-04-23 18:28 51.46827 11.11268 23215 ft 323 kts 171°
2026-04-23 18:28 51.44590 11.11659 23212 ft 323 kts 171°
2026-04-23 18:29 51.42365 11.12048 23212 ft 324 kts 171°
2026-04-23 18:29 51.40117 11.12440 23215 ft 324 kts 171°
2026-04-23 18:29 51.37877 11.12830 23218 ft 323 kts 171°
2026-04-23 18:29 51.35656 11.13217 23220 ft 324 kts 171°
2026-04-23 18:30 51.33425 11.13605 23224 ft 323 kts 171°
2026-04-23 18:30 51.31186 11.13994 23226 ft 324 kts 171°
2026-04-23 18:30 51.28955 11.14381 23226 ft 324 kts 171°
2026-04-23 18:30 51.26709 11.14771 23230 ft 324 kts 171°
2026-04-23 18:31 51.24481 11.15157 23234 ft 323 kts 170°
2026-04-23 18:31 51.22248 11.15543 23237 ft 323 kts 171°
2026-04-23 18:31 51.20023 11.15928 23227 ft 324 kts 171°
2026-04-23 18:31 51.17788 11.16314 23224 ft 324 kts 170°
2026-04-23 18:32 51.15565 11.16698 23231 ft 324 kts 170°
2026-04-23 18:32 51.13327 11.17084 23238 ft 324 kts 170°
2026-04-23 18:32 51.11075 11.17472 23238 ft 324 kts 170°
2026-04-23 18:32 51.08861 11.17852 23238 ft 324 kts 170°
2026-04-23 18:33 51.06612 11.18239 23234 ft 324 kts 170°
2026-04-23 18:33 51.04379 11.18623 23236 ft 324 kts 170°
2026-04-23 18:33 51.02129 11.19009 23241 ft 324 kts 170°
2026-04-23 18:33 50.99905 11.19390 23240 ft 324 kts 171°
2026-04-23 18:34 50.97677 11.19772 23236 ft 324 kts 170°
2026-04-23 18:34 50.95431 11.20156 23241 ft 324 kts 171°
2026-04-23 18:34 50.93206 11.20536 23242 ft 324 kts 170°
2026-04-23 18:34 50.90960 11.20920 23242 ft 324 kts 170°
2026-04-23 18:35 50.88717 11.21303 23234 ft 324 kts 170°
2026-04-23 18:35 50.86488 11.21683 23236 ft 324 kts 170°
2026-04-23 18:35 50.84255 11.22063 23235 ft 324 kts 170°
2026-04-23 18:35 50.82016 11.22443 23237 ft 323 kts 170°
2026-04-23 18:36 50.79777 11.22824 23241 ft 323 kts 170°
2026-04-23 18:36 50.77541 11.23203 23240 ft 323 kts 170°
2026-04-23 18:36 50.75315 11.23581 23112 ft 320 kts 170°
2026-04-23 18:36 50.73105 11.23959 22862 ft 319 kts 170°
2026-04-23 18:37 50.70925 11.24331 22610 ft 317 kts 170°
2026-04-23 18:37 50.68735 11.24703 22359 ft 317 kts 170°
2026-04-23 18:37 50.66569 11.25071 22112 ft 316 kts 170°
2026-04-23 18:37 50.64389 11.25440 21863 ft 315 kts 170°
2026-04-23 18:38 50.62197 11.25811 21611 ft 315 kts 170°
2026-04-23 18:38 50.60049 11.26173 21366 ft 314 kts 170°
2026-04-23 18:38 50.57869 11.26540 21267 ft 315 kts 170°
2026-04-23 18:38 50.55690 11.26904 21240 ft 319 kts 170°
2026-04-23 18:39 50.53462 11.27276 21235 ft 321 kts 170°
2026-04-23 18:39 50.51257 11.27644 21233 ft 323 kts 170°
2026-04-23 18:39 50.49015 11.28018 21214 ft 324 kts 170°
2026-04-23 18:39 50.46792 11.28392 20867 ft 325 kts 170°
2026-04-23 18:40 50.44562 11.28770 20480 ft 321 kts 170°
2026-04-23 18:40 50.42342 11.29145 20037 ft 320 kts 170°
2026-04-23 18:40 50.40148 11.29514 19591 ft 319 kts 170°
2026-04-23 18:40 50.37947 11.29884 19146 ft 317 kts 170°
2026-04-23 18:41 50.35756 11.30251 18703 ft 317 kts 171°
2026-04-23 18:41 50.33594 11.30612 18267 ft 317 kts 171°
2026-04-23 18:41 50.31397 11.30978 17829 ft 318 kts 171°
2026-04-23 18:41 50.29196 11.31345 17387 ft 318 kts 171°
2026-04-23 18:42 50.26992 11.31711 16944 ft 319 kts 171°
2026-04-23 18:42 50.24800 11.32074 16502 ft 321 kts 171°
2026-04-23 18:42 50.22592 11.32438 16070 ft 324 kts 171°
2026-04-23 18:42 50.20328 11.32812 15637 ft 326 kts 171°
2026-04-23 18:43 50.18094 11.33180 15206 ft 328 kts 172°
2026-04-23 18:43 50.15813 11.33556 14756 ft 329 kts 172°
2026-04-23 18:43 50.13538 11.33930 14315 ft 330 kts 172°
2026-04-23 18:43 50.11274 11.34303 13876 ft 331 kts 172°
2026-04-23 18:44 50.08987 11.34680 13431 ft 332 kts 172°
2026-04-23 18:44 50.06691 11.35058 12988 ft 326 kts 172°
2026-04-23 18:44 50.04480 11.35426 12545 ft 317 kts 173°
2026-04-23 18:44 50.02325 11.35783 12091 ft 309 kts 173°
2026-04-23 18:45 50.00217 11.36132 11638 ft 302 kts 172°
2026-04-23 18:45 49.98157 11.36473 11192 ft 296 kts 173°
2026-04-23 18:45 49.96138 11.36806 10751 ft 291 kts 173°
2026-04-23 18:45 49.94149 11.37134 10376 ft 282 kts 173°
2026-04-23 18:46 49.92244 11.37445 10276 ft 278 kts 173°
2026-04-23 18:46 49.90308 11.37753 10250 ft 282 kts 173°
2026-04-23 18:46 49.88334 11.38071 10240 ft 283 kts 173°
2026-04-23 18:46 49.86393 11.38384 10227 ft 284 kts 173°
2026-04-23 18:47 49.84425 11.38704 10228 ft 285 kts 173°
2026-04-23 18:47 49.82464 11.39022 10227 ft 285 kts 173°
2026-04-23 18:47 49.80495 11.39342 10224 ft 283 kts 173°
2026-04-23 18:47 49.78541 11.39660 10227 ft 282 kts 173°
2026-04-23 18:48 49.76594 11.39977 10226 ft 280 kts 173°
2026-04-23 18:48 49.74668 11.40289 10228 ft 279 kts 173°
2026-04-23 18:48 49.72752 11.40585 10227 ft 278 kts 173°
2026-04-23 18:48 49.70821 11.40877 10053 ft 279 kts 173°
2026-04-23 18:49 49.68914 11.41169 9622 ft 276 kts 173°
2026-04-23 18:49 49.67007 11.41466 9173 ft 272 kts 173°
2026-04-23 18:49 49.65141 11.41767 8727 ft 270 kts 173°
2026-04-23 18:49 49.63298 11.42071 8284 ft 268 kts 173°
2026-04-23 18:50 49.62062 11.42282 7986 ft 267 kts 173°
2026-04-23 18:50 49.59614 11.42737 7384 ft 265 kts 172°
2026-04-23 18:50 49.57810 11.43109 6903 ft 265 kts 172°
2026-04-23 18:50 49.55984 11.43484 6398 ft 264 kts 172°
2026-04-23 18:51 49.54166 11.43860 5895 ft 263 kts 172°
2026-04-23 18:51 49.52377 11.44233 5428 ft 260 kts 172°
2026-04-23 18:51 49.50602 11.44608 4974 ft 257 kts 172°
2026-04-23 18:51 49.48848 11.44971 4523 ft 254 kts 174°
2026-04-23 18:52 49.47134 11.44679 4169 ft 239 kts 205°
2026-04-23 18:52 49.45970 11.43178 4048 ft 208 kts 249°
2026-04-23 18:52 49.45858 11.41167 4018 ft 184 kts 295°
2026-04-23 18:52 49.46434 11.39464 4018 ft 181 kts 298°
2026-04-23 18:53 49.46797 11.37573 4017 ft 187 kts 285°
2026-04-23 18:53 49.47034 11.35600 4016 ft 188 kts 285°
2026-04-23 18:53 49.47272 11.33625 4011 ft 188 kts 285°
2026-04-23 18:53 49.47473 11.31693 3897 ft 179 kts 284°
2026-04-23 18:54 49.47657 11.29851 3627 ft 171 kts 284°
2026-04-23 18:54 49.47832 11.28100 3353 ft 159 kts 284°
2026-04-23 18:54 49.47989 11.26528 3201 ft 145 kts 286°
2026-04-23 18:54 49.48160 11.25000 3099 ft 146 kts 286°
2026-04-23 18:55 49.48330 11.23433 2896 ft 150 kts 284°
2026-04-23 18:55 49.48484 11.21854 2652 ft 147 kts 283°
2026-04-23 18:55 49.48624 11.20368 2405 ft 135 kts 282°
2026-04-23 18:55 49.48767 11.18948 2252 ft 133 kts 283°
2026-04-23 18:56 49.48867 11.18016 2145 ft 136 kts 282°
2026-04-23 18:56 49.49065 11.16056 1924 ft 142 kts 280°
2026-04-23 18:56 49.49214 11.14541 1741 ft 148 kts 279°
2026-04-23 18:56 49.49366 11.12960 1535 ft 147 kts 279°
2026-04-23 18:57 49.49515 11.11424 1333 ft 141 kts 279°
2026-04-23 18:57 49.49658 11.09969 1156 ft 136 kts 279°
2026-04-23 18:57 49.49795 11.08598 1052 ft 107 kts 280°
2026-04-23 18:57 49.49881 11.07794 1052 ft 28 kts 281°
2026-04-23 18:58 49.49834 11.07655 1052 ft 15 kts 172°
2026-04-23 18:58 49.49748 11.07709 1052 ft 0 kts 154°
2026-04-23 18:59 49.49732 11.07721 1052 ft 6 kts 154°
2026-04-23 18:59 49.49670 11.07769 1052 ft 12 kts 140°
2026-04-23 18:59 49.49641 11.07927 1052 ft 18 kts 98°
2026-04-23 19:00 49.49622 11.08128 1052 ft 16 kts 98°
2026-04-23 19:00 49.49610 11.08251 1052 ft 2 kts 98°
2026-04-23 19:00 49.49601 11.08280 1052 ft 2 kts 143°
2026-04-23 19:00 49.49586 11.08280 1052 ft 1 kts 187°